{"data":{"norad_id":39574,"epoch":"2026-05-25T04:00:17.741664Z","epoch_age_seconds":56488,"freshness":"FRESH","line1":"1 39574U 14009C   26145.16687201  .00010715  00000+0  22956-3 0  9991","line2":"2 39574  64.9737  25.2838 0011870 266.0403  93.9381 15.45122468694259","mean_motion":15.45122468,"eccentricity":0.001187,"inclination_deg":64.9737,"raan_deg":25.2838,"arg_perigee_deg":266.0403,"mean_anomaly_deg":93.9381,"bstar":0.00022956,"rev_number":69425,"period_min":93.196496059237,"perigee_km":422.9357806526,"apogee_km":439.10071521119,"semimajor_km":6809.1552479319,"source":"CELESTRAK","updated_at":"2026-05-25T13:38:12.783465Z"}}